Historyczne dane pomiarowe

Dodano dane terminowe – wersja testowa.

Dane z okresu 1951-2019

Wersja bazy: 1.34 [2019-03-16, lista zmian], aktualizacja planowana na 2019-04-15

Dane meteo z obszaru Polski uzyskane na podstawie danych udostępnionych przez Instytut Meteorologii i Gospodarki Wodnej – Państwowy Instytut Badawczy.

 

Wybierz Datę:    

       

TemperaturaWilgotnośćWiatrCiśnienieOpadyŚniegCzas trwania zjawisk
 Stacja t tx tn tng RH VA  wxwx mslp ppp RRR   cm mm wxwxwxwxwxwxwx
2019-05-31 15.9 22.3 9.2 8.5 63.6 10.9- 1.6--1023.7 988.6 0.0 0.0 0.0x- 10.0-------
2019-05-30 11.9 16.4 6.3 5.6 58.3 7.8- 2.3--1024.4 988.8 0.0 0.0 0.0x- 10.1-------
2019-05-29 11.7 17.0 9.6 9.6 81.9 11.2- 4.1--1015.9 980.5 0.0 0.0 0.0x- 2.6-------
2019-05-28 16.7 21.5 14.3 14.3 83.6 15.8- 2.0--1005.3 970.9 5.0 1.3 3.7x- 3.1-------
2019-05-27 18.8 24.3 11.9 9.3 65.3 13.8- 2.1--1010.1 975.7 1.4 0.0 1.4x- 8.4-------
2019-05-26 16.8 22.3 10.7 8.7 64.0 11.8- 1.6--1013.8 979.1 0.0 0.0 0.0x- 11.1-------
2019-05-25 15.7 21.8 7.9 4.8 66.8 11.5- 1.4--1013.2 978.4 0.0 0.0 0.0x- 11.3-------
2019-05-24 13.3 17.7 9.9 9.8 75.5 11.4- 2.0--1014.4 979.3 0.0 0.0 0.0x- 2.6-------
2019-05-23 11.7 15.4 10.6 10.9 95.8 13.2- 4.6--1013.5 978.2 0.5 0.2 0.3x- 0.0-------
2019-05-22 13.8 17.4 12.1 11.5 86.8 13.6- 3.8--1005.2 970.5 13.6 1.4 12.2x- 0.7-------
2019-05-21 14.6 19.1 11.7 8.5 81.1 13.4- 2.1--1003.8 969.2 7.5 7.5 0.0x- 0.8-------
2019-05-20 17.7 22.2 13.0 11.3 68.0 13.1- 2.6--1003.9 969.7 0.2 0.0 0.2x- 8.0-------
2019-05-19 17.2 24.5 11.4 8.4 73.4 14.1- 2.4--1006.9 972.5 0.0 0.0 0.0x- 11.3-------
2019-05-18 16.3 22.9 9.8 7.6 69.8 12.1- 1.3--1010.3 975.7 0.1 0.0 0.1x- 11.1-------
2019-05-17 13.5 19.8 9.9 9.9 85.0 12.9- 1.6--1012.3 977.3 3.9 2.8 1.1x- 2.5-------
2019-05-16 10.5 13.8 8.2 8.4 89.1 11.3- 1.0--1014.9 979.4 8.7 0.0 8.7x- 2.2-------
2019-05-15 7.5 8.7 5.7 5.8 97.8 10.2- 3.4--1019.0 983.0 4.1 1.9 2.2x- 0.0-------
2019-05-14 5.7 8.8 3.3 2.3 86.8 7.9- 3.6--1026.9 990.4 12.0 4.1 7.9x- 0.5-------
2019-05-13 7.4 11.1 5.4 5.5 75.5 7.7- 3.4--1031.3 994.8 0.0 0.0 0.0x- 0.6-------
2019-05-12 10.3 16.5 6.8 6.9 81.8 10.2- 3.5--1020.9 985.2 1.7 1.2 0.5x- 0.9-------
2019-05-11 13.7 18.3 7.6 5.9 64.1 9.5- 1.3--1012.8 977.8 0.0 0.0 0.0x- 6.8-------
2019-05-10 10.9 16.8 7.0 7.5 85.6 11.0- 1.4--1008.0 972.8 3.7 3.5 0.2x- 3.2-------
2019-05-09 9.2 12.7 7.4 6.8 79.5 9.2- 2.4--1005.5 970.2 3.5 3.1 0.4x- 0.0-------
2019-05-08 10.2 15.7 4.2 0.4 55.6 6.6- 2.3--1014.2 978.7 0.0 0.0 0.0x- 7.6-------
2019-05-07 7.7 11.9 3.0 1.3 59.5 6.1- 3.8--1017.2 981.3 0.0 0.0 0.0x- 8.1-------
2019-05-06 7.9 11.6 5.1 5.2 49.1 5.1- 3.8--1014.5 978.7 0.0 0.0 0.0x- 2.8-------
2019-05-05 5.9 11.8 2.4 2.6 69.1 6.2- 4.8--1012.3 976.4 0.0 0.0 0.0x- 0.2-------
2019-05-04 9.0 15.2 2.6 0.5 61.4 6.6- 2.5--1006.5 971.2 0.0 0.0 0.0x- 8.4-------
2019-05-03 8.1 13.6 6.4 4.3 71.9 7.8- 1.9--1007.1 971.6 0.1 0.1 0.0x- 2.1-------
2019-05-02 12.8 18.3 7.7 7.0 63.4 9.1- 2.4--1005.1 970.2 0.0 0.0 0.0x- 9.7-------
2019-05-01 11.9 17.0 7.3 4.9 57.4 7.6- 4.0--1009.2 974.1 0.5 0.0 0.5x- 11.8-------
2019-04-30 12.7 16.9 9.8 9.9 75.1 10.7- 3.4--1011.6 976.5 0.0 0.0 0.0x- 5.8-------
2019-04-29 9.8 10.8 8.5 8.3 96.9 11.7- 2.5--1012.6 977.1 5.7 3.7 2.0x- 0.0-------
2019-04-28 9.1 10.4 8.5 7.8 90.4 10.4- 3.4--1014.5 978.9 32.9 14.0 18.9x- 0.0-------
2019-04-27 11.6 21.4 9.8 9.8 80.5 10.9- 1.8--1012.1 976.8 0.2 0.2 0.0x- 0.0-------
2019-04-26 20.3 26.9 13.9 10.5 44.1 10.0- 2.6--1009.7 975.6 0.0 0.0 0.0x- 9.9-------
2019-04-25 19.0 25.4 13.2 11.4 50.0 10.5- 2.4--1013.5 979.1 0.0 0.0 0.0x- 12.0-------
2019-04-24 14.8 19.8 11.0 9.7 54.4 9.2- 3.4--1014.3 979.4 0.0 0.0 0.0x- 3.8-------
2019-04-23 12.6 17.6 6.4 5.8 47.9 7.0- 4.4--1019.8 984.4 0.0 0.0 0.0x- 8.7-------
2019-04-22 11.2 17.5 5.2 5.4 54.8 6.9- 3.6--1030.6 994.6 0.0 0.0 0.0x- 5.1-------
2019-04-21 11.4 17.7 4.4 1.4 45.6 5.8- 2.6--1030.5 994.6 0.0 0.0 0.0x- 11.6-------
2019-04-20 12.6 18.8 3.7 0.3 37.4 5.1- 3.1--1030.4 994.6 0.0 0.0 0.0x- 11.4-------
2019-04-19 13.9 20.1 6.7 0.8 33.5 4.9- 2.6--1030.2 994.6 0.0 0.0 0.0x- 12.4-------
2019-04-18 13.5 18.9 6.6 4.9 38.9 5.8- 1.9--1030.1 994.4 0.0 0.0 0.0x- 12.1-------
2019-04-17 11.1 17.6 4.1 3.8 52.0 6.1- 2.4--1026.2 990.4 0.0 0.0 0.0x- 11.2-------
2019-04-16 7.4 13.5 0.5 -3.9 42.5 4.0- 2.5--1024.8 988.6 0.0 0.0 0.0x- 12.3-------
2019-04-15 6.6 11.2 0.7 -0.5 41.3 3.9- 2.8--1025.8 989.4 0.0 0.0 0.0x- 12.2-------
2019-04-14 8.1 14.0 4.0 3.3 48.0 4.9- 3.6--1021.8 985.8 0.0 0.0 0.0x- 9.0-------
2019-04-13 2.6 5.0 0.0 0.3 86.5 6.4- 2.5--1022.3 985.5 1.1 1.1 0.0x- 0.0-------
2019-04-12 3.6 6.2 0.7 0.7 56.5 4.4- 3.4--1022.8 986.2 1.4 0.0 1.4x- 3.2-------
2019-04-11 3.8 6.6 1.6 1.9 56.5 4.5- 4.0--1020.5 984.0 0.0 0.0 0.0x- 0.1-------
2019-04-10 5.1 8.7 2.3 2.4 57.1 5.0- 3.3--1015.7 979.5 0.0 0.0 0.0x- 0.1-------
2019-04-09 8.5 14.0 3.3 2.7 63.0 6.9- 3.5--1011.3 975.7 0.0 0.0 0.0x- 11.2-------
2019-04-08 11.6 17.1 3.4 0.1 57.0 7.2- 1.6--1009.3 974.1 0.0 0.0 0.0x- 10.9-------
2019-04-07 10.8 16.5 5.8 2.8 69.6 8.8- 1.5--1008.4 973.1 0.0 0.0 0.0x- 6.7-------
2019-04-06 10.8 16.4 6.9 6.6 63.6 8.2- 2.8--1008.8 973.5 0.5 0.5 0.0x- 6.2-------
2019-04-05 14.5 20.8 8.9 8.2 46.6 7.3- 2.5--1007.4 972.6 0.0 0.0 0.0x- 8.6-------
2019-04-04 12.9 19.8 5.7 4.9 43.5 6.1- 3.3--1006.3 971.4 0.2 0.0 0.2x- 6.7-------
2019-04-03 10.9 17.7 3.4 2.5 40.9 5.3- 3.1--1011.0 975.7 0.0 0.0 0.0x- 10.2-------
2019-04-02 7.0 13.8 0.3 -0.7 37.0 3.6- 3.8--1020.2 984.1 0.0 0.0 0.0x- 10.8-------
61.9 ms

 

Źródłem pochodzenia danych jest Instytut Meteorologii i Gospodarki Wodnej – Państwowy Instytut Badawczy. Dane Instytutu Meteorologii i Gospodarki Wodnej – Państwowego Instytutu Badawczego zostały przetworzone.

Dane źródłowe można odnaleźć na stronie https://dane.imgw.pl